Flag for U.S.A. Weather past 2 weeks in Buffalo, New York, U.S.A.

Now
50 °F

Passing clouds.


Feels Like: 47 °F
Forecast: 43 / 56 °F
Wind: 8 mph from Southwest

Location: Greater Buffalo International Airport

Current Time: Oct 24, 2014 at 11:37:09 AM

Latest Report: Oct 24, 2014 at 10:54 AM


Visibility: 10 mi

Pressure: 30.03 "Hg

Humidity: 71%

Dew point: 41 °F

Location of BuffaloLocation

Historic Weather in Buffalo — Graph

°F

Buffalo temperature yesterday

Maximum temperature yesterday: 59 °F (at 2:54 PM)
Minimum temperature yesterday: 42 °F (at 6:54 AM)
Average temperature yesterday: 50 °F

Past Weeks' High & Low Weather Summary

 TemperatureHumidityPressure
High79 °F (Oct 14, 11:54 AM)100% (Oct 16, 4:54 AM)30.29 "Hg (Oct 16, 4:54 AM)
Low36 °F (Oct 12, 5:54 AM)35% (Oct 12, 4:54 PM)29.52 "Hg (Oct 18, 3:54 AM)
Average53 °F74%29.95 "Hg
* Reported Oct 9 9:54 AM — Oct 24 9:54 AM, Buffalo, Weather by CustomWeather, © 2014

Note: Actual official high and low records may vary slightly from our data, if they occured in-between our weather recording intervals... More about our weather records

Advertising

Buffalo weather history for previous 24 hours

 ConditionsComfort  
Time TempWeatherWind HumidityBarometerVisibility
9:54 AM
Oct 24
47 °FPassing clouds.5 mph80%30.04 "Hg10 mi
8:54 AM43 °FPassing clouds.3 mph89%30.05 "Hg10 mi
7:54 AM40 °FPassing clouds.3 mph89%30.05 "Hg8 mi
6:54 AM40 °FPassing clouds.5 mph89%30.05 "Hg9 mi
5:54 AM40 °FPassing clouds.5 mph89%30.04 "Hg8 mi
4:54 AM40 °FClear.6 mph93%30.03 "Hg9 mi
3:54 AM43 °FClear.3 mph89%30.03 "Hg10 mi
2:54 AM44 °FClear.5 mph85%30.02 "Hg10 mi
1:54 AM46 °FPassing clouds.7 mph83%30.02 "Hg10 mi
12:54 AM46 °FPassing clouds.7 mph79%30.02 "Hg10 mi
11:54 PM
Oct 23
48 °FPassing clouds.8 mph74%30.03 "Hg10 mi
10:54 PM49 °FPassing clouds.7 mph69%30.05 "Hg10 mi
9:54 PM50 °FPassing clouds.8 mph68%30.04 "Hg10 mi
8:54 PM51 °FPassing clouds.7 mph69%30.04 "Hg10 mi
7:54 PM53 °FPassing clouds.9 mph64%30.05 "Hg10 mi
6:54 PM53 °FPassing clouds.6 mph61%30.05 "Hg10 mi
5:54 PM57 °FPassing clouds.10 mph53%30.04 "Hg10 mi
4:54 PM58 °FPassing clouds.17 mph51%30.05 "Hg10 mi
3:54 PM59 °FPassing clouds.9 mph49%30.05 "Hg10 mi
2:54 PM59 °FPassing clouds.12 mph48%30.07 "Hg10 mi
1:54 PM58 °FPassing clouds.10 mph51%30.08 "Hg10 mi
12:54 PM57 °FPassing clouds.12 mph51%30.09 "Hg10 mi
11:54 AM55 °FPassing clouds.12 mph57%30.11 "Hg10 mi
Weather by CustomWeather, © 2014

See weather overviewHow to use our weather pages